Probability
29 35 45 43 30 24 29 31 27 24 20 13 10 10 11 13 17 24 31 27 18 11 5 1 0 0 2 4 6 9 15 21 21 19 17 14 10 6 3 1 0 0 0
41 43 48 48 42 41 48 50 45 40 36 30 25 25 24 23 25 30 34 31 25 18 10 5 4 4 6 9 10 11 16 23 28 28 24 20 15 10 6 3 2 1 1
48 51 51 53 57 60 66 69 67 64 60 54 50 49 47 42 40 40 42 43 39 30 22 17 16 15 15 15 17 18 21 28 36 39 35 30 23 16 12 8 6 4 3
45 49 51 53 60 67 73 76 77 77 75 69 65 61 60 56 50 47 48 50 49 41 34 31 30 29 25 23 25 30 36 40 44 49 48 42 34 25 19 14 9 5 5
37 42 46 48 57 69 76 77 78 81 80 73 63 56 54 55 53 48 45 46 47 43 37 37 35 31 29 29 32 40 49 54 56 57 57 54 49 38 27 17 10 5 4
31 35 39 42 49 61 68 69 72 77 80 72 58 50 49 50 49 45 39 38 39 36 33 35 35 31 28 29 29 35 47 58 63 65 63 62 59 49 32 19 11 6 5
24 29 34 36 40 46 50 55 62 69 74 72 65 57 51 47 45 41 37 36 33 29 28 32 36 36 33 27 21 22 33 47 59 64 63 59 58 51 36 23 15 10 9
15 20 26 29 30 33 36 42 53 63 68 71 72 66 55 46 42 39 38 37 33 29 27 28 34 38 36 30 23 17 20 32 45 50 50 48 46 45 40 32 24 16 12
8 11 16 20 23 25 27 33 44 55 61 67 71 71 63 51 44 39 38 39 38 34 29 25 24 27 30 31 26 14 11 18 28 33 36 36 33 33 36 36 31 23 16
3 5 8 12 16 18 21 25 33 45 54 59 65 72 70 62 53 43 38 38 39 35 31 26 22 21 23 24 19 10 5 7 12 18 24 28 26 24 27 31 32 26 20
1 2 3 7 10 14 18 22 28 36 43 49 57 66 70 68 61 51 43 43 42 37 33 31 28 24 20 17 12 6 2 1 2 6 11 16 18 20 21 24 27 25 20
2 2 2 5 8 12 17 21 25 29 34 42 48 55 62 63 60 56 52 51 50 46 40 35 29 24 19 15 9 4 1 0 0 1 2 5 9 13 15 17 19 19 17
3 3 3 4 6 10 13 18 22 25 28 33 37 44 52 56 56 58 59 58 57 53 45 34 26 21 18 15 8 2 0 0 0 0 0 1 3 5 6 8 10 11 10
6 6 5 4 4 4 7 13 19 21 23 25 26 32 40 47 53 56 59 62 61 55 46 33 24 21 20 14 6 1 1 0 0 0 0 0 1 1 1 1 2 3 3
19 14 10 8 6 4 4 9 14 15 17 19 20 23 29 37 45 47 52 61 64 59 49 36 25 21 18 12 3 0 0 0 0 0 0 0 0 0 0 0 0 0 0
36 28 18 13 11 8 6 7 9 9 10 13 15 15 18 27 36 41 46 55 61 59 49 36 26 20 13 6 2 0 0 0 0 0 0 0 0 0 0 0 0 0 0
46 37 25 17 14 12 8 6 6 5 5 7 9 8 10 18 30 38 43 48 53 51 40 28 21 16 8 3 1 0 0 0 0 0 0 0 0 0 0 0 0 0 0
44 36 27 21 16 12 9 6 5 4 3 3 4 5 8 15 24 32 37 38 39 36 28 20 13 8 4 1 0 0 0 0 0 0 0 0 0 0 0 0 0 0 0
38 31 26 23 18 13 9 6 4 3 3 3 4 6 10 14 18 24 27 28 28 24 19 14 6 2 0 0 0 0 0 0 0 0 0 0 0 0 0 0 0 0 0
31 26 23 21 17 12 8 5 3 3 3 3 3 4 7 10 11 13 17 20 19 16 13 10 4 1 0 0 0 0 0 0 0 0 0 0 0 0 0 0 0 0 0
21 20 17 15 13 9 6 3 3 3 3 3 2 2 2 3 3 4 7 11 11 9 9 7 4 1 0 0 0 0 0 0 0 0 0 0 0 0 0 0 0 0 0
14 13 11 9 8 5 3 1 1 2 3 2 1 0 0 0 0 0 2 3 4 4 5 4 3 1 0 0 0 0 0 0 0 0 0 0 0 0 0 0 0 0 0
11 10 9 6 4 3 1 0 0 1 2 1 0 0 0 0 0 0 0 0 0 1 2 1 1 1 0 0 0 0 0 0 0 0 0 0 0 0 0 0 0 0 0
8 9 8 5 3 1 0 0 0 0 0 0 0 0 0 0 0 0 0 0 0 0 0 0 0 0 0 0 0 0 0 0 0 0 0 0 0 0 0 0 0 0 0
4 5 6 4 3 1 0 0 0 0 0 0 0 0 0 0 0 0 0 0 0 0 0 0 0 0 0 0 0 0 0 0 0 0 0 0 0 0 0 0 0 0 0
1 2 3 3 3 2 1 0 0 0 0 0 0 0 0 0 0 0 0 0 0 0 0 0 0 0 0 0 0 0 0 0 0 0 0 0 0 0 0 0 0 0 0
Wind_Speed
8 7 6 6 8 7 7 7 8 8 9 10 10 10 10 10 10 8 5 7 10 12 13 13 13 13 13 13 14 14 15 16 17 18 19 20 20 20 20 20 19 19 18
8 7 8 8 8 8 7 7 9 9 8 8 10 10 10 10 9 9 8 7 11 13 13 14 14 14 13 13 13 14 14 15 16 17 18 19 20 20 20 20 20 19 19
9 9 9 8 8 8 8 8 10 8 8 8 10 10 9 9 10 10 9 8 8 11 14 14 14 14 14 14 14 13 13 14 14 16 17 18 19 19 20 20 20 19 19
10 9 9 9 8 8 8 8 8 8 8 8 7 7 7 7 11 10 9 9 8 9 10 13 14 13 13 14 15 14 13 13 14 15 17 18 19 19 20 20 20 20 19
10 9 9 9 9 8 8 9 8 8 8 7 7 7 8 8 8 10 10 11 10 10 10 8 12 12 12 12 13 13 12 12 13 14 16 17 18 18 19 20 20 20 20
8 9 8 9 9 8 8 8 9 8 8 7 8 9 9 9 8 9 9 10 9 11 12 11 8 9 12 11 10 11 12 12 12 13 15 16 17 18 19 19 20 20 20
8 7 8 8 8 8 9 10 9 10 8 6 7 9 10 10 10 8 8 9 10 11 11 10 8 8 5 10 9 9 10 11 10 11 13 15 16 17 18 19 20 20 20
7 7 7 8 8 8 10 10 9 8 8 7 7 7 7 8 9 10 9 9 10 9 9 10 8 7 7 5 2 5 6 8 9 9 10 11 13 15 17 19 19 19 20
7 7 8 9 8 9 9 9 9 11 10 9 9 8 7 8 5 6 9 8 8 7 7 6 7 7 6 5 3 2 1 3 5 6 6 8 10 12 14 17 18 19 19
7 7 8 8 9 9 9 10 10 9 11 9 8 10 10 8 6 5 6 7 8 8 7 6 6 6 5 4 1 2 2 1 2 3 3 4 6 9 12 14 17 18 19
6 7 8 8 8 8 9 10 10 11 9 10 9 8 10 10 11 8 7 6 6 6 6 6 5 4 3 3 2 4 4 3 2 3 2 2 1 3 7 11 13 15 18
5 6 7 8 9 8 9 9 10 12 11 11 10 9 9 8 8 9 10 8 6 4 4 3 3 3 3 2 4 7 5 4 4 4 4 4 4 3 1 3 7 9 12
6 5 7 8 8 8 9 10 10 11 11 12 11 10 10 10 8 9 9 8 7 4 4 3 3 3 3 3 5 6 8 6 6 6 7 7 7 7 7 5 3 3 4
7 7 8 9 9 10 10 9 10 11 10 11 12 12 9 10 9 9 8 7 6 5 5 5 3 3 3 4 6 3 8 8 8 8 8 9 9 10 10 10 10 9 8
7 8 9 9 10 10 10 10 9 10 10 11 11 11 10 9 8 8 8 8 7 6 5 5 4 4 4 5 4 5 7 10 9 9 10 11 11 11 12 12 12 12 11
8 9 9 10 10 10 10 9 10 9 10 10 9 10 10 8 7 7 7 7 7 6 4 4 4 6 5 6 5 7 9 11 11 10 10 11 11 12 12 12 12 12 12
10 10 10 10 10 9 9 8 10 10 10 10 10 10 10 9 7 6 6 6 6 5 5 5 6 7 7 7 7 7 7 7 9 11 11 11 11 12 12 12 12 12 12
11 11 10 10 10 9 8 9 10 9 9 10 9 9 8 6 7 5 5 5 5 5 7 9 7 7 8 8 7 6 6 7 9 11 11 11 10 11 11 11 11 11 10
11 11 11 10 10 9 9 8 8 8 8 8 7 7 6 5 5 4 5 5 5 6 7 8 8 6 6 7 8 7 8 6 8 10 11 11 10 10 10 10 10 9 8
12 12 11 11 10 9 8 8 7 6 5 4 3 3 3 4 5 5 5 7 7 8 8 8 8 7 7 7 6 7 7 6 6 7 8 8 10 10 10 10 9 8 7
12 11 12 11 10 9 7 6 6 5 3 1 1 2 2 4 4 3 5 8 9 8 8 8 8 8 7 7 6 6 7 7 6 5 6 6 7 7 8 9 10 9 7
11 11 11 12 11 8 3 2 5 4 2 3 4 5 6 7 11 11 11 9 7 8 8 7 7 8 8 6 5 5 7 7 6 4 4 5 5 6 7 8 8 8 7
12 11 11 11 11 8 7 6 5 5 4 5 5 6 6 7 9 10 13 14 13 11 7 6 9 8 8 6 6 6 4 5 6 4 2 5 4 5 7 8 7 7 7
11 11 10 11 11 8 10 9 7 6 5 6 7 7 8 9 9 11 12 12 11 10 8 8 9 8 8 6 5 6 8 7 6 4 0 4 4 4 6 7 7 6 6
11 11 10 10 10 9 11 11 10 7 7 7 7 8 9 10 11 12 12 13 12 10 13 15 13 12 11 8 3 5 6 6 7 6 2 2 3 3 4 5 7 7 6
12 11 10 9 10 9 13 14 12 8 9 8 7 8 9 11 11 10 12 13 13 12 12 12 11 10 10 8 5 2 2 4 6 6 3 1 3 2 4 4 4 3 3
Wind_Direction
253 256 259 259 264 264 254 248 258 263 262 259 257 257 259 261 260 260 260 230 235 246 253 255 253 250 247 242 238 235 231 228 225 222 221 221 223 223 223 221 219 217 215
259 264 260 259 261 264 266 266 262 260 260 262 262 261 263 267 265 265 266 251 231 237 246 253 255 253 250 247 243 239 235 231 226 221 219 220 221 222 222 221 220 217 216
256 257 262 261 261 263 262 259 262 259 256 254 256 261 261 264 265 263 264 266 258 233 231 241 249 254 256 255 251 244 237 230 225 221 219 218 219 220 220 220 219 217 215
262 261 262 262 264 263 261 258 257 256 255 255 257 261 265 261 260 260 257 252 256 263 243 229 236 243 251 256 256 252 244 236 229 223 220 218 218 218 218 219 218 217 215
270 266 267 269 269 265 262 263 259 253 256 255 258 259 261 260 260 261 261 259 253 255 260 238 219 227 240 250 255 255 250 242 233 227 222 219 219 217 217 217 217 216 215
282 280 273 271 270 266 262 258 260 255 256 258 263 263 258 255 254 255 256 256 255 252 251 255 241 222 220 231 244 252 253 250 240 233 227 222 220 217 217 216 216 215 214
292 285 285 286 276 270 266 263 259 258 252 247 255 258 255 249 248 249 249 252 252 251 251 252 256 261 231 207 219 239 250 253 251 242 233 226 222 219 216 216 215 214 213
300 290 291 287 283 281 272 267 259 258 255 237 239 254 259 250 239 237 234 233 240 243 240 239 240 245 263 263 196 215 245 256 255 247 239 232 225 220 217 216 215 213 212
303 301 297 292 292 281 278 275 269 259 258 249 234 238 247 249 251 235 231 233 232 235 237 237 236 241 245 251 246 178 222 277 270 263 255 244 235 225 219 217 215 212 211
299 300 296 293 288 286 282 273 265 263 259 255 242 235 243 260 256 253 237 229 223 224 234 235 229 222 227 236 191 69 68 8 317 292 277 263 247 232 222 219 216 213 212
291 295 297 295 290 283 282 280 277 267 261 257 253 245 241 243 244 250 252 235 224 220 218 222 220 215 204 217 212 90 84 77 57 38 20 3 325 246 224 220 220 216 213
292 295 297 295 289 288 285 277 273 267 263 262 259 252 244 239 233 235 242 239 230 221 213 212 201 184 168 152 98 86 78 73 70 67 60 53 48 41 56 212 216 216 215
293 300 299 294 292 290 286 282 274 268 263 259 256 253 250 247 245 241 243 242 235 213 196 191 181 170 158 130 110 107 89 77 73 71 72 67 63 61 61 67 92 147 178
292 299 288 285 286 285 284 281 277 270 263 259 256 255 254 250 245 240 238 234 225 208 196 183 160 158 135 125 105 135 101 78 73 74 76 76 72 70 69 70 72 78 85
279 281 283 284 284 284 283 281 275 274 270 263 259 253 249 248 243 239 234 228 221 208 193 175 158 143 138 115 129 120 102 86 80 80 78 77 76 73 70 71 73 74 77
271 273 276 281 283 283 282 281 281 276 273 267 262 259 253 248 240 235 231 223 219 214 189 159 146 139 131 126 116 109 104 104 84 82 81 80 79 76 74 73 73 73 74
271 267 269 274 278 280 283 282 281 282 276 274 267 256 249 245 238 229 221 213 205 194 165 136 128 126 128 121 124 124 126 119 99 86 86 84 83 80 78 75 73 73 73
269 266 267 267 270 276 280 282 282 282 280 278 273 260 247 235 225 218 204 193 177 168 153 142 135 135 131 128 125 126 117 108 105 98 93 88 86 86 82 78 74 71 69
272 267 263 262 264 269 272 275 278 281 280 280 274 259 242 219 209 190 177 161 154 147 143 140 135 130 131 129 132 121 112 115 114 121 115 104 95 92 87 83 77 71 66
278 270 263 259 259 261 266 268 269 275 280 289 289 270 239 203 185 170 159 149 138 134 138 137 135 135 132 138 140 138 131 125 116 114 105 112 116 112 101 89 78 70 62
283 274 267 259 253 252 256 262 260 256 255 242 93 74 66 86 92 126 141 140 139 138 139 136 137 138 139 154 152 146 130 128 116 115 128 130 136 123 115 102 79 63 55
291 280 268 261 251 245 178 222 264 234 208 154 120 99 96 94 89 83 86 95 113 131 133 138 139 135 140 143 138 147 147 148 128 107 124 117 117 105 89 76 65 57 49
293 284 272 261 250 229 176 188 224 218 178 152 138 129 116 109 110 108 96 89 79 74 90 114 123 125 128 128 145 142 116 105 92 107 151 123 118 108 104 88 80 66 54
294 285 276 265 250 218 179 182 191 194 160 147 140 132 127 127 122 123 117 108 101 87 87 98 104 103 104 106 111 111 115 120 121 101 88 125 119 117 113 107 108 89 74
293 286 276 265 249 213 181 181 190 173 155 144 138 137 138 133 127 129 123 116 109 99 78 78 81 84 75 64 65 146 160 158 130 108 75 112 126 139 127 117 129 144 123
287 287 278 264 247 219 182 181 192 175 158 149 140 137 137 135 140 141 133 130 125 122 120 113 107 111 104 89 57 73 149 142 132 115 85 103 128 170 143 111 83 92 117